Tracking 18795 objects as of 21-August-2017
HD Live streaming from Space Station
objects crossing your sky now

TITAN 3 R/B(2)

Track TITAN 3 R/B(2) now!


NORAD ID: 20669
Int'l Code: 1990-056C
Perigee: 299.9 km
Apogee: 33,020.5 km
Inclination: 24.4 °
Period: 579.7 minutes
Semi major axis: 23031 km
RCS: 6.947 m2 (large)
Launch date: June 23, 1990
Source: United States (US)
Launch site: AIR FORCE EASTERN TEST RANGE (AFETR)

Note: This is a ROCKET BODY
Your satellite tracking list
Your tracking list is empty





NASA's NSSDC Master Catalog

Two Line Element Set (TLE):
1 20669U 90056C   17232.49284192 +.00001578 +00000-0 +10209-2 0  9992
2 20669 024.4410 060.1144 7103555 070.1476 349.6677 02.48386879229029
Source of the keplerian elements: AFSPC